DLH3XV EDDM-EFHK

Flight info

Callsign DLH3XV
Flight time 2h 13m
Altitude 36000
Route AKINI1E AKINI Y104 MAMOR L132 AGNAV DCT SUPIL DCT KILNU DCT UNRIG/N0439F370 DCT BODLA DCT PENOR DCT ALAMI DCT OKEVU DCT EVADI Y370 DIVAM
Aircraft A321/M-SDE2E3FGIJ1LORWXYZ/HB1

Departure

Time 2026-05-04 14:05
Airport Munich Airport (EDDM)

Arrival

Time 2026-05-04 16:18
Airport Helsinki Vantaa Airport (EFHK)
Time Latitude Longitude Altitude Speed Heading
2026-05-04 13:46 48.35245 11.79767 1479 ft 0 kts 83°
2026-05-04 13:54 48.35244 11.79761 1485 ft 3 kts 83°
2026-05-04 13:54 48.35239 11.79688 1476 ft 4 kts 82°
2026-05-04 13:55 48.35232 11.79651 1475 ft 4 kts 53°
2026-05-04 13:55 48.35190 11.79636 1476 ft 2 kts 353°
2026-05-04 13:55 48.35189 11.79636 1477 ft 0 kts 353°
2026-05-04 13:58 48.35229 11.79625 1480 ft 7 kts 339°
2026-05-04 13:58 48.35300 11.79559 1473 ft 16 kts 330°
2026-05-04 13:59 48.35426 11.79529 1474 ft 20 kts 352°
2026-05-04 13:59 48.35582 11.79499 1479 ft 25 kts 353°
2026-05-04 13:59 48.35906 11.79378 1481 ft 22 kts 310°
2026-05-04 14:00 48.36048 11.79324 1481 ft 20 kts 352°
2026-05-04 14:00 48.36080 11.79129 1485 ft 16 kts 263°
2026-05-04 14:00 48.36065 11.78932 1475 ft 20 kts 263°
2026-05-04 14:01 48.36047 11.78721 1476 ft 21 kts 263°
2026-05-04 14:01 48.36030 11.78497 1485 ft 23 kts 263°
2026-05-04 14:01 48.35992 11.77997 1475 ft 25 kts 263°
2026-05-04 14:02 48.35973 11.77739 1485 ft 18 kts 267°
2026-05-04 14:02 48.36054 11.77658 1481 ft 16 kts 351°
2026-05-04 14:02 48.36151 11.77714 1478 ft 15 kts 49°
2026-05-04 14:02 48.36217 11.77849 1479 ft 17 kts 53°
2026-05-04 14:03 48.36289 11.77992 1474 ft 18 kts 53°
2026-05-04 14:03 48.36365 11.78145 1480 ft 19 kts 53°
2026-05-04 14:03 48.36390 11.78233 1481 ft 0 kts 83°
2026-05-04 14:03 48.36391 11.78247 1476 ft 2 kts 83°
2026-05-04 14:04 48.36417 11.78589 1483 ft 63 kts 83°
2026-05-04 14:04 48.36496 11.79617 1475 ft 131 kts 83°
2026-05-04 14:04 48.36624 11.81231 1707 ft 162 kts 84°
2026-05-04 14:05 48.36819 11.84058 2794 ft 174 kts 83°
2026-05-04 14:05 48.37266 11.86590 3189 ft 203 kts 60°
2026-05-04 14:05 48.38240 11.88224 3450 ft 217 kts 36°
2026-05-04 14:06 48.39098 11.89038 3660 ft 227 kts 32°
2026-05-04 14:06 48.40515 11.90349 3897 ft 252 kts 32°
2026-05-04 14:06 48.42023 11.91825 4487 ft 263 kts 40°
2026-05-04 14:06 48.43198 11.93968 5216 ft 268 kts 56°
2026-05-04 14:07 48.44241 11.96324 5960 ft 274 kts 57°
2026-05-04 14:07 48.45306 11.98745 6663 ft 280 kts 56°
2026-05-04 14:07 48.46596 12.00967 7375 ft 285 kts 41°
2026-05-04 14:07 48.48258 12.02637 8090 ft 290 kts 25°
2026-05-04 14:08 48.50190 12.03594 8804 ft 295 kts
2026-05-04 14:08 48.52275 12.03791 9523 ft 299 kts 358°
2026-05-04 14:08 48.54379 12.03783 10204 ft 304 kts 358°
2026-05-04 14:08 48.56508 12.03778 10890 ft 308 kts 358°
2026-05-04 14:09 48.60858 12.03803 12254 ft 317 kts
2026-05-04 14:09 48.63044 12.04366 12941 ft 322 kts 17°
2026-05-04 14:10 48.67199 12.07070 14272 ft 329 kts 25°
2026-05-04 14:10 48.69323 12.08534 14876 ft 333 kts 24°
2026-05-04 14:10 48.71441 12.09989 15490 ft 336 kts 24°
2026-05-04 14:10 48.73578 12.11455 16107 ft 338 kts 24°
2026-05-04 14:11 48.75701 12.12913 16688 ft 343 kts 24°
2026-05-04 14:11 48.80293 12.16180 16977 ft 380 kts 25°
2026-05-04 14:11 48.82675 12.17910 17390 ft 387 kts 25°
2026-05-04 14:12 48.85115 12.19688 17930 ft 391 kts 25°
2026-05-04 14:12 48.87581 12.21483 18463 ft 394 kts 25°
2026-05-04 14:12 48.92579 12.25061 19457 ft 399 kts 24°
2026-05-04 14:13 48.95139 12.26857 19933 ft 402 kts 24°
2026-05-04 14:13 48.97693 12.28642 20423 ft 405 kts 24°
2026-05-04 14:13 49.00258 12.30437 20897 ft 408 kts 24°
2026-05-04 14:13 49.02846 12.32254 21357 ft 410 kts 24°
2026-05-04 14:14 49.05446 12.34086 21819 ft 413 kts 24°
2026-05-04 14:14 49.10698 12.37808 22738 ft 419 kts 24°
2026-05-04 14:14 49.13347 12.39692 23209 ft 422 kts 24°
2026-05-04 14:15 49.18707 12.43507 24010 ft 428 kts 24°
2026-05-04 14:15 49.24128 12.47369 24760 ft 432 kts 24°
2026-05-04 14:16 49.29611 12.51290 25517 ft 437 kts 23°
2026-05-04 14:16 49.32379 12.53226 25888 ft 438 kts 20°
2026-05-04 14:17 49.38262 12.55604 26603 ft 439 kts
2026-05-04 14:17 49.41268 12.56540 26963 ft 441 kts
2026-05-04 14:17 49.47313 12.58431 27667 ft 446 kts
2026-05-04 14:18 49.50363 12.59391 28032 ft 448 kts
2026-05-04 14:18 49.56495 12.61335 28729 ft 452 kts
2026-05-04 14:19 49.62707 12.63062 29416 ft 455 kts
2026-05-04 14:19 49.65846 12.63792 29753 ft 457 kts
2026-05-04 14:19 49.68997 12.64491 30082 ft 459 kts
2026-05-04 14:19 49.72171 12.65203 30359 ft 461 kts
2026-05-04 14:20 49.75350 12.65942 30628 ft 463 kts
2026-05-04 14:20 49.78542 12.66712 30888 ft 465 kts
2026-05-04 14:20 49.81747 12.67506 31147 ft 467 kts
2026-05-04 14:21 49.88179 12.69121 31643 ft 470 kts
2026-05-04 14:21 49.91412 12.69931 31959 ft 469 kts
2026-05-04 14:21 49.94631 12.70732 32311 ft 468 kts
2026-05-04 14:21 49.97841 12.71524 32668 ft 467 kts
2026-05-04 14:22 50.01044 12.72312 33013 ft 466 kts
2026-05-04 14:22 50.04244 12.73098 33353 ft 465 kts
2026-05-04 14:22 50.07443 12.73888 33699 ft 464 kts
2026-05-04 14:22 50.10625 12.74678 34028 ft 463 kts
2026-05-04 14:23 50.16974 12.76264 34586 ft 461 kts
2026-05-04 14:23 50.20143 12.77054 34865 ft 461 kts
2026-05-04 14:23 50.23304 12.77840 35137 ft 460 kts
2026-05-04 14:24 50.26469 12.78626 35398 ft 460 kts
2026-05-04 14:24 50.29624 12.79409 35661 ft 459 kts
2026-05-04 14:24 50.32782 12.80196 35908 ft 460 kts
2026-05-04 14:25 50.38908 12.83029 35988 ft 462 kts 23°
2026-05-04 14:25 50.47306 12.90613 35980 ft 460 kts 21°
2026-05-04 14:26 50.53275 12.93817 35977 ft 456 kts 13°
2026-05-04 14:26 50.59358 12.96703 35973 ft 456 kts 13°
2026-05-04 14:27 50.65473 12.99637 35989 ft 457 kts 13°
2026-05-04 14:27 50.71567 13.02556 35991 ft 458 kts 13°
2026-05-04 14:28 50.77632 13.05464 35988 ft 459 kts 13°
2026-05-04 14:28 50.83781 13.08427 35995 ft 459 kts 13°
2026-05-04 14:29 50.96007 13.14351 35992 ft 460 kts 13°
2026-05-04 14:30 51.02129 13.17318 35992 ft 460 kts 13°
2026-05-04 14:31 51.11311 13.21801 35995 ft 460 kts 13°
2026-05-04 14:32 51.23562 13.27815 35991 ft 461 kts 13°
2026-05-04 14:32 51.29694 13.30830 36003 ft 461 kts 13°
2026-05-04 14:33 51.35830 13.33840 35988 ft 461 kts 13°
2026-05-04 14:33 51.41966 13.36877 35983 ft 462 kts 13°
2026-05-04 14:34 51.48061 13.39909 35981 ft 462 kts 13°
2026-05-04 14:34 51.54200 13.42961 35991 ft 462 kts 13°
2026-05-04 14:35 51.60373 13.46034 35991 ft 461 kts 13°
2026-05-04 14:35 51.66464 13.49078 35989 ft 461 kts 13°
2026-05-04 14:36 51.72588 13.52164 35986 ft 461 kts 13°
2026-05-04 14:36 51.78712 13.55252 35995 ft 461 kts 13°
2026-05-04 14:37 51.84837 13.58339 35986 ft 461 kts 13°
2026-05-04 14:37 51.90940 13.61528 35976 ft 462 kts 14°
2026-05-04 14:38 51.97004 13.64983 35972 ft 462 kts 15°
2026-05-04 14:38 52.03067 13.68484 35978 ft 462 kts 15°
2026-05-04 14:39 52.09140 13.71944 35978 ft 463 kts 14°
2026-05-04 14:39 52.15216 13.75398 35980 ft 463 kts 14°
2026-05-04 14:40 52.24344 13.80570 35996 ft 463 kts 14°
2026-05-04 14:40 52.30432 13.84036 35990 ft 463 kts 14°
2026-05-04 14:41 52.36548 13.87548 35988 ft 463 kts 14°
2026-05-04 14:42 52.47665 13.93969 35992 ft 463 kts 14°
2026-05-04 14:42 52.53742 13.97473 35973 ft 463 kts 14°
2026-05-04 14:43 52.59806 14.00991 35972 ft 463 kts 14°
2026-05-04 14:43 52.65878 14.04524 35966 ft 462 kts 14°
2026-05-04 14:44 52.71946 14.08061 35969 ft 462 kts 14°
2026-05-04 14:44 52.78000 14.11644 35954 ft 465 kts 19°
2026-05-04 14:45 52.80797 14.14418 35936 ft 474 kts 37°
2026-05-04 14:45 52.83153 14.18270 35934 ft 478 kts 45°
2026-05-04 14:45 52.87626 14.26470 35928 ft 481 kts 45°
2026-05-04 14:46 52.92099 14.34737 35935 ft 483 kts 45°
2026-05-04 14:46 52.96835 14.42543 35958 ft 475 kts 30°
2026-05-04 14:47 53.02355 14.48493 35970 ft 472 kts 29°
2026-05-04 14:47 53.07877 14.54377 35974 ft 471 kts 28°
2026-05-04 14:48 53.13390 14.60271 35984 ft 471 kts 28°
2026-05-04 14:48 53.18891 14.66191 35969 ft 471 kts 29°
2026-05-04 14:49 53.24391 14.72131 35964 ft 471 kts 29°
2026-05-04 14:49 53.29896 14.78074 35960 ft 471 kts 29°
2026-05-04 14:50 53.35390 14.84032 35968 ft 471 kts 29°
2026-05-04 14:50 53.40888 14.90021 35961 ft 471 kts 29°
2026-05-04 14:51 53.46389 14.96032 35988 ft 472 kts 29°
2026-05-04 14:51 53.51884 15.02059 35958 ft 472 kts 29°
2026-05-04 14:52 53.57383 15.08103 35973 ft 473 kts 29°
2026-05-04 14:52 53.62889 15.14163 35963 ft 473 kts 29°
2026-05-04 14:53 53.68403 15.20247 35961 ft 474 kts 29°
2026-05-04 14:53 53.73917 15.26356 35959 ft 474 kts 29°
2026-05-04 14:54 53.79422 15.32495 35984 ft 475 kts 29°
2026-05-04 14:54 53.84931 15.38670 35975 ft 475 kts 29°
2026-05-04 14:55 53.90436 15.44841 35974 ft 474 kts 29°
2026-05-04 14:55 53.95904 15.50976 35977 ft 475 kts 29°
2026-05-04 14:56 54.01407 15.57189 35990 ft 475 kts 29°
2026-05-04 14:56 54.06915 15.63413 35983 ft 475 kts 29°
2026-05-04 14:57 54.12423 15.69660 35978 ft 476 kts 29°
2026-05-04 14:57 54.17929 15.75927 35975 ft 476 kts 29°
2026-05-04 14:58 54.23432 15.82209 35998 ft 477 kts 30°
2026-05-04 14:58 54.28957 15.88549 35961 ft 478 kts 30°
2026-05-04 14:59 54.34480 15.94902 35960 ft 479 kts 30°
2026-05-04 15:00 54.42775 16.04481 35953 ft 479 kts 30°
2026-05-04 15:00 54.48305 16.10894 35982 ft 480 kts 30°
2026-05-04 15:01 54.56625 16.20570 35963 ft 482 kts 30°
2026-05-04 15:01 54.62353 16.26439 35952 ft 477 kts 21°
2026-05-04 15:02 54.68303 16.31555 35970 ft 477 kts 21°
2026-05-04 15:02 54.74243 16.36690 35954 ft 478 kts 21°
2026-05-04 15:03 54.80195 16.41854 35941 ft 479 kts 21°
2026-05-04 15:03 54.86158 16.47033 35942 ft 479 kts 21°
2026-05-04 15:04 54.92115 16.52225 35934 ft 479 kts 21°
2026-05-04 15:04 54.98074 16.57434 35928 ft 479 kts 22°
2026-05-04 15:05 55.04033 16.62656 35924 ft 479 kts 22°
2026-05-04 15:05 55.09987 16.67901 35928 ft 479 kts 22°
2026-05-04 15:06 55.15945 16.73161 35949 ft 480 kts 21°
2026-05-04 15:07 55.24883 16.81084 35937 ft 481 kts 22°
2026-05-04 15:07 55.30852 16.86401 35928 ft 481 kts 22°
2026-05-04 15:08 55.36814 16.91730 35921 ft 481 kts 22°
2026-05-04 15:08 55.42774 16.97079 35911 ft 480 kts 21°
2026-05-04 15:09 55.48725 17.02432 35901 ft 480 kts 21°
2026-05-04 15:09 55.54672 17.07792 35898 ft 480 kts 21°
2026-05-04 15:10 55.63594 17.15896 35901 ft 481 kts 22°
2026-05-04 15:11 55.72411 17.24450 35909 ft 482 kts 24°
2026-05-04 15:11 55.78232 17.30360 35896 ft 482 kts 24°
2026-05-04 15:12 55.84061 17.36244 35887 ft 481 kts 24°
2026-05-04 15:12 55.89893 17.42083 35903 ft 481 kts 24°
2026-05-04 15:13 55.95731 17.47938 35886 ft 481 kts 24°
2026-05-04 15:13 56.01553 17.53802 35881 ft 480 kts 24°
2026-05-04 15:14 56.07363 17.59680 35875 ft 480 kts 24°
2026-05-04 15:14 56.13176 17.65583 35869 ft 480 kts 24°
2026-05-04 15:15 56.18963 17.71484 35848 ft 478 kts 24°
2026-05-04 15:15 56.24739 17.77392 35840 ft 478 kts 24°
2026-05-04 15:16 56.33412 17.86303 35840 ft 479 kts 24°
2026-05-04 15:17 56.42076 17.95258 35853 ft 479 kts 25°
2026-05-04 15:17 56.47855 18.01255 36289 ft 479 kts 25°
2026-05-04 15:17 56.50747 18.04264 36518 ft 479 kts 25°
2026-05-04 15:18 56.53634 18.07271 36734 ft 480 kts 25°
2026-05-04 15:18 56.56534 18.10298 36808 ft 481 kts 25°
2026-05-04 15:19 56.65235 18.19419 36809 ft 482 kts 26°
2026-05-04 15:19 56.73940 18.28585 36803 ft 482 kts 26°
2026-05-04 15:20 56.79742 18.34732 36805 ft 482 kts 26°
2026-05-04 15:20 56.85537 18.40889 36831 ft 482 kts 26°
2026-05-04 15:21 56.91330 18.47061 36818 ft 483 kts 26°
2026-05-04 15:22 57.00037 18.56382 36797 ft 483 kts 26°
2026-05-04 15:22 57.08741 18.65745 36836 ft 483 kts 26°
2026-05-04 15:23 57.14541 18.72020 36811 ft 484 kts 26°
2026-05-04 15:23 57.20338 18.78330 36802 ft 484 kts 26°
2026-05-04 15:24 57.31006 18.89960 36795 ft 484 kts 26°
2026-05-04 15:25 57.36810 18.96314 36802 ft 484 kts 26°
2026-05-04 15:26 57.45493 19.05908 36798 ft 485 kts 26°
2026-05-04 15:26 57.54181 19.15536 36799 ft 485 kts 26°
2026-05-04 15:27 57.62867 19.25199 36802 ft 485 kts 26°
2026-05-04 15:28 57.71541 19.34932 36791 ft 485 kts 26°
2026-05-04 15:29 57.80231 19.44732 36789 ft 486 kts 26°
2026-05-04 15:30 58.00426 19.67713 36772 ft 485 kts 27°
2026-05-04 15:31 58.09085 19.77660 36796 ft 486 kts 27°
2026-05-04 15:32 58.23499 19.94366 36779 ft 486 kts 27°
2026-05-04 15:34 58.37888 20.11168 36761 ft 485 kts 27°
2026-05-04 15:34 58.46502 20.21320 36755 ft 485 kts 27°
2026-05-04 15:35 58.55111 20.31516 36757 ft 486 kts 27°
2026-05-04 15:36 58.63713 20.41792 36744 ft 486 kts 27°
2026-05-04 15:36 58.69416 20.48629 36751 ft 486 kts 27°
2026-05-04 15:37 58.75196 20.55567 36760 ft 487 kts 27°
2026-05-04 15:37 58.80903 20.62446 36782 ft 487 kts 28°
2026-05-04 15:38 58.86687 20.69438 36734 ft 487 kts 28°
2026-05-04 15:38 58.92432 20.76433 36754 ft 488 kts 28°
2026-05-04 15:39 58.98165 20.83470 36747 ft 488 kts 28°
2026-05-04 15:39 59.03692 20.91165 36744 ft 493 kts 40°
2026-05-04 15:40 59.06025 20.96088 36760 ft 497 kts 50°
2026-05-04 15:40 59.09769 21.07404 36744 ft 499 kts 57°
2026-05-04 15:41 59.13382 21.18920 36740 ft 499 kts 57°
2026-05-04 15:41 59.17003 21.30485 36743 ft 500 kts 57°
2026-05-04 15:42 59.20609 21.42063 36739 ft 500 kts 58°
2026-05-04 15:42 59.24193 21.53699 36461 ft 499 kts 58°
2026-05-04 15:42 59.25955 21.59442 36240 ft 499 kts 58°
2026-05-04 15:43 59.27761 21.65329 35983 ft 500 kts 58°
2026-05-04 15:43 59.29551 21.71164 35721 ft 500 kts 58°
2026-05-04 15:43 59.31337 21.77010 35471 ft 500 kts 58°
2026-05-04 15:43 59.33110 21.82848 35219 ft 498 kts 58°
2026-05-04 15:44 59.34879 21.88680 34975 ft 496 kts 58°
2026-05-04 15:44 59.36616 21.94409 34735 ft 495 kts 58°
2026-05-04 15:44 59.38390 22.00274 34499 ft 493 kts 58°
2026-05-04 15:44 59.40133 22.06033 34265 ft 491 kts 58°
2026-05-04 15:45 59.41850 22.11712 34038 ft 489 kts 58°
2026-05-04 15:45 59.43574 22.17432 33782 ft 484 kts 58°
2026-05-04 15:45 59.45301 22.23188 33252 ft 482 kts 59°
2026-05-04 15:45 59.46965 22.28760 32789 ft 477 kts 59°
2026-05-04 15:46 59.48653 22.34438 32308 ft 472 kts 59°
2026-05-04 15:46 59.50300 22.39993 31830 ft 468 kts 59°
2026-05-04 15:46 59.51915 22.45440 31360 ft 464 kts 59°
2026-05-04 15:46 59.53536 22.50914 30902 ft 460 kts 59°
2026-05-04 15:47 59.55138 22.56343 30427 ft 457 kts 59°
2026-05-04 15:47 59.56726 22.61738 29995 ft 454 kts 59°
2026-05-04 15:47 59.58300 22.67107 29509 ft 450 kts 59°
2026-05-04 15:47 59.59856 22.72433 29082 ft 445 kts 59°
2026-05-04 15:48 59.61386 22.77681 28659 ft 438 kts 59°
2026-05-04 15:48 59.62899 22.82872 28246 ft 433 kts 59°
2026-05-04 15:48 59.65873 22.93074 27450 ft 424 kts 59°
2026-05-04 15:49 59.67333 22.98092 27043 ft 419 kts 59°
2026-05-04 15:49 59.68776 23.03078 26657 ft 414 kts 59°
2026-05-04 15:49 59.70212 23.08069 26268 ft 410 kts 59°
2026-05-04 15:49 59.71615 23.12956 25859 ft 405 kts 59°
2026-05-04 15:50 59.73001 23.17784 25447 ft 403 kts 59°
2026-05-04 15:50 59.74410 23.22692 24403 ft 419 kts 59°
2026-05-04 15:50 59.75880 23.27816 23337 ft 435 kts 59°
2026-05-04 15:50 59.77394 23.33098 22364 ft 443 kts 59°
2026-05-04 15:51 59.78896 23.38354 21993 ft 433 kts 59°
2026-05-04 15:51 59.80370 23.43532 21495 ft 428 kts 59°
2026-05-04 15:51 59.81823 23.48665 21013 ft 424 kts 59°
2026-05-04 15:51 59.83253 23.53737 20443 ft 416 kts 59°
2026-05-04 15:52 59.84657 23.58720 19508 ft 410 kts 59°
2026-05-04 15:52 59.86017 23.63655 19067 ft 400 kts 62°
2026-05-04 15:52 59.87207 23.68546 18904 ft 387 kts 64°
2026-05-04 15:52 59.88431 23.73264 18512 ft 381 kts 59°
2026-05-04 15:53 59.89766 23.77800 18052 ft 378 kts 57°
2026-05-04 15:53 59.91121 23.82267 17584 ft 375 kts 57°
2026-05-04 15:53 59.92482 23.86695 17106 ft 372 kts 57°
2026-05-04 15:53 59.93828 23.91072 16637 ft 369 kts 57°
2026-05-04 15:54 59.95161 23.95434 16172 ft 366 kts 57°
2026-05-04 15:54 59.96472 23.99762 15719 ft 363 kts 57°
2026-05-04 15:54 59.97767 24.04066 15267 ft 360 kts 57°
2026-05-04 15:54 59.99048 24.08339 14825 ft 358 kts 57°
2026-05-04 15:55 60.00321 24.12592 14393 ft 355 kts 57°
2026-05-04 15:55 60.01602 24.16783 13988 ft 351 kts 53°
2026-05-04 15:55 60.02986 24.20789 13554 ft 349 kts 52°
2026-05-04 15:55 60.04393 24.24815 13072 ft 347 kts 52°
2026-05-04 15:56 60.05750 24.28704 12630 ft 344 kts 52°
2026-05-04 15:56 60.07131 24.32665 12190 ft 341 kts 52°
2026-05-04 15:56 60.08483 24.36549 11758 ft 338 kts 52°
2026-05-04 15:56 60.09823 24.40406 11332 ft 336 kts 52°
2026-05-04 15:57 60.11153 24.44237 10895 ft 333 kts 52°
2026-05-04 15:57 60.12470 24.48033 10488 ft 331 kts 52°
2026-05-04 15:57 60.13776 24.51814 10088 ft 328 kts 52°
2026-05-04 15:57 60.15090 24.55491 9814 ft 320 kts 50°
2026-05-04 15:58 60.16432 24.59023 9451 ft 317 kts 49°
2026-05-04 15:58 60.17762 24.62533 9052 ft 314 kts 49°
2026-05-04 15:58 60.19079 24.66019 8664 ft 312 kts 49°
2026-05-04 15:58 60.20582 24.69043 8280 ft 301 kts 28°
2026-05-04 15:59 60.22389 24.71037 7905 ft 295 kts 21°
2026-05-04 15:59 60.24227 24.72831 7520 ft 292 kts 20°
2026-05-04 15:59 60.26048 24.74583 7142 ft 289 kts 20°
2026-05-04 15:59 60.27857 24.76319 6773 ft 287 kts 20°
2026-05-04 16:00 60.29654 24.78032 6412 ft 284 kts 20°
2026-05-04 16:00 60.31449 24.79582 6057 ft 276 kts
2026-05-04 16:00 60.33301 24.79716 5662 ft 263 kts 345°
2026-05-04 16:00 60.35074 24.78918 5290 ft 258 kts 341°
2026-05-04 16:01 60.36779 24.78034 5088 ft 250 kts 341°
2026-05-04 16:01 60.38435 24.77158 4828 ft 244 kts 341°
2026-05-04 16:01 60.40066 24.76286 4573 ft 239 kts 341°
2026-05-04 16:01 60.41658 24.75430 4314 ft 234 kts 341°
2026-05-04 16:02 60.43218 24.74586 4043 ft 229 kts 341°
2026-05-04 16:02 60.44229 24.74038 3876 ft 226 kts 341°
2026-05-04 16:02 60.47295 24.73913 3352 ft 226 kts 12°
2026-05-04 16:03 60.48778 24.74909 3091 ft 223 kts 14°
2026-05-04 16:03 60.50113 24.76461 2842 ft 224 kts 44°
2026-05-04 16:03 60.50700 24.79300 2583 ft 222 kts 89°
2026-05-04 16:03 60.50203 24.82125 2323 ft 213 kts 136°
2026-05-04 16:04 60.48957 24.83356 2089 ft 197 kts 182°
2026-05-04 16:04 60.46258 24.83327 1996 ft 196 kts 171°
2026-05-04 16:04 60.45015 24.84227 1994 ft 180 kts 160°
2026-05-04 16:05 60.43918 24.85268 1999 ft 174 kts 158°
2026-05-04 16:05 60.42824 24.86369 2001 ft 172 kts 158°
2026-05-04 16:05 60.40712 24.88537 1889 ft 170 kts 157°
2026-05-04 16:06 60.39679 24.89604 1716 ft 160 kts 158°
2026-05-04 16:06 60.36921 24.92445 1093 ft 145 kts 159°
2026-05-04 16:07 60.36029 24.93363 890 ft 142 kts 157°
2026-05-04 16:07 60.33452 24.96032 325 ft 136 kts 158°
2026-05-04 16:08 60.32610 24.96887 188 ft 133 kts 156°
2026-05-04 16:08 60.29901 24.99660 1538 ft 166 kts 156°
2026-05-04 16:09 60.28176 25.03324 2337 ft 212 kts 101°
2026-05-04 16:09 60.28056 25.09646 3365 ft 233 kts 91°
2026-05-04 16:10 60.28590 25.16012 4653 ft 236 kts 51°
2026-05-04 16:11 60.32857 25.20033 5005 ft 225 kts
2026-05-04 16:11 60.34367 25.19824 5008 ft 215 kts 338°
2026-05-04 16:12 60.38297 25.15772 5006 ft 211 kts 326°
2026-05-04 16:12 60.42090 25.11383 4446 ft 207 kts 326°
2026-05-04 16:13 60.44390 25.08116 3366 ft 197 kts 302°
2026-05-04 16:13 60.44684 25.03021 2566 ft 183 kts 250°
2026-05-04 16:14 60.43686 24.98566 2071 ft 166 kts 248°
2026-05-04 16:14 60.42755 24.94373 2003 ft 162 kts 247°
2026-05-04 16:15 60.40370 24.89988 1739 ft 163 kts 192°
2026-05-04 16:16 60.38306 24.91020 1398 ft 150 kts 158°
2026-05-04 16:16 60.35616 24.93788 792 ft 140 kts 156°
2026-05-04 16:17 60.33900 24.95561 404 ft 138 kts 157°
2026-05-04 16:18 60.31773 24.97736 152 ft 59 kts 153°
2026-05-04 16:18 60.31595 24.97919 153 ft 22 kts 155°
2026-05-04 16:19 60.31500 24.97682 156 ft 12 kts 328°
2026-05-04 16:19 60.31668 24.97506 159 ft 14 kts 333°
2026-05-04 16:20 60.31971 24.97194 165 ft 18 kts 333°
2026-05-04 16:20 60.32119 24.97043 166 ft 7 kts 332°
2026-05-04 16:21 60.32062 24.96778 167 ft 11 kts 226°
2026-05-04 16:22 60.31967 24.96573 167 ft 9 kts 227°
2026-05-04 16:22 60.31903 24.96492 167 ft 4 kts 149°
2026-05-04 16:23 60.31874 24.96541 167 ft 0 kts 139°